Weather History for KDFW - November, 2014

Change the Weather History Date:

Tuesday, November 18, 2014

  Actual Average Record
Temperature  
Mean Temperature 39 °F 56 °F  
Max Temperature 56 °F 66 °F 83 °F (1973)
Min Temperature 22 °F 45 °F 20 °F (1903)
Degree Days  
Heating Degree Days 26 10  
Month to date heating degree days 291 132  
Since 1 July heating degree days 304 204  
Cooling Degree Days 0 1  
Month to date cooling degree days 0 26  
Year to date cooling degree days 2946 2749  
Moisture  
Dew Point 19 °F    
Average Humidity 50    
Maximum Humidity 81    
Minimum Humidity 19    
Precipitation  
Precipitation 0.00 in 0.08 in 1.71 in (1964)
Month to date precipitation 1.45 1.80  
Year to date precipitation 19.51 32.68  
Snow  
Snow 0.00 in 0.00 in 0.00 in ()
Month to date snowfall T 0.0  
Since 1 July snowfall T 0.0  
Since 1 September snowfall T 0.0  
Snow Depth 0.00 in    
Sea Level Pressure  
Sea Level Pressure 30.39 in    
Wind  
Wind Speed 10 mph (SSW)    
Max Wind Speed 20 mph    
Max Gust Speed 27 mph    
Visibility 10 miles    
Events      
T = Trace of Precipitation, MM = Missing Value Source: NWS Daily Summary

Daily Weather History Graph

Daily Weather History Graph

Search for Another Location

Airport or City:

Trip Planner

Search our weather history database for the weather conditions in past years. The results will help you decide how hot, cold, wet, or windy it might be!

Date:

Astronomy

Nov. 18, 2014 Rise Set
Actual Time 7:01 AM CST 5:25 PM CST
Civil Twilight 6:34 AM CST 5:51 PM CST
Nautical Twilight 6:04 AM CST 6:21 PM CST
Astronomical Twilight 5:35 AM CST 6:50 PM CST
Moon 3:13 AM CST (11/18) 3:09 PM CST (11/18)
Length of Visible Light 11h 16m
Length of Day
10h 23m
Waning Crescent, 15% of the Moon is Illuminated
Nov 18
Waning Crescent
Nov 22
New
Nov 29
First Quarter
Dec 6
Full
Dec 14
Last Quarter

Hourly Weather History & Observations

Time (CST) Temp. Windchill Dew Point Humidity Pressure Visibility Wind Dir Wind Speed Gust Speed Precip Events Conditions
12:53 AM 26.1 °F 18.4 °F 19.9 °F 78% 30.44 in 10.0 mi SSW 6.9 mph - N/A   Scattered Clouds
1:53 AM 26.1 °F 19.4 °F 19.9 °F 78% 30.45 in 10.0 mi SW 5.8 mph - N/A   Scattered Clouds
2:53 AM 27.0 °F 21.6 °F 21.0 °F 78% 30.44 in 10.0 mi SSW 4.6 mph - N/A   Scattered Clouds
3:53 AM 28.0 °F 24.2 °F 21.0 °F 75% 30.44 in 10.0 mi SSW 3.5 mph - N/A   Partly Cloudy
4:53 AM 26.1 °F 20.5 °F 19.9 °F 78% 30.45 in 10.0 mi South 4.6 mph - N/A   Partly Cloudy
5:53 AM 25.0 °F 17.1 °F 19.9 °F 81% 30.46 in 10.0 mi SSW 6.9 mph - N/A   Mostly Cloudy
6:53 AM 24.1 °F 16.0 °F 19.0 °F 81% 30.46 in 10.0 mi SSW 6.9 mph - N/A   Partly Cloudy
7:53 AM 27.0 °F 21.6 °F 21.9 °F 81% 30.48 in 10.0 mi South 4.6 mph - N/A   Partly Cloudy
8:53 AM 34.0 °F 28.0 °F 24.1 °F 67% 30.48 in 10.0 mi South 6.9 mph - N/A   Partly Cloudy
9:53 AM 39.9 °F 33.4 °F 21.9 °F 49% 30.49 in 10.0 mi South 10.4 mph - N/A   Clear
10:53 AM 46.0 °F 40.6 °F 19.0 °F 34% 30.48 in 10.0 mi SSW 11.5 mph - N/A   Clear
11:53 AM 48.9 °F - 18.0 °F 29% 30.44 in 10.0 mi SSW 6.9 mph - N/A   Clear
12:53 PM 53.1 °F - 12.9 °F 20% 30.40 in 10.0 mi SW 12.7 mph - N/A   Clear
1:53 PM 54.0 °F - 15.1 °F 22% 30.37 in 10.0 mi WSW 12.7 mph - N/A   Clear
2:53 PM 55.0 °F - 14.0 °F 20% 30.34 in 10.0 mi SW 17.3 mph - N/A   Clear
3:53 PM 55.0 °F - 15.1 °F 21% 30.32 in 10.0 mi SSW 11.5 mph - N/A   Clear
4:53 PM 53.1 °F - 16.0 °F 23% 30.31 in 10.0 mi SSW 12.7 mph - N/A   Partly Cloudy
5:53 PM 45.0 °F 40.6 °F 18.0 °F 34% 30.32 in 10.0 mi South 8.1 mph - N/A   Clear
6:53 PM 45.0 °F 39.7 °F 19.0 °F 36% 30.32 in 10.0 mi South 10.4 mph - N/A   Clear
7:53 PM 44.1 °F 38.1 °F 19.9 °F 38% 30.32 in 10.0 mi South 11.5 mph - N/A   Clear
8:53 PM 44.1 °F 37.1 °F 19.0 °F 37% 30.31 in 10.0 mi South 15.0 mph - N/A   Clear
9:53 PM 44.1 °F 36.5 °F 19.0 °F 37% 30.31 in 10.0 mi South 17.3 mph - N/A   Clear
10:53 PM 43.0 °F 35.4 °F 19.0 °F 38% 30.29 in 10.0 mi SSW 16.1 mph - N/A   Clear
11:53 PM 42.1 °F 35.2 °F 19.0 °F 40% 30.29 in 10.0 mi SSW 12.7 mph - N/A   Clear